Total_Precipitation_Accumulation
0.00 0.00 0.00 0.00 0.00 0.00 0.00 0.00 0.00 0.01 0.04 0.11 0.08 0.19 0.59 0.16 0.07 0.03 0.01 0.00 0.00 0.00 0.00 0.00 0.00 0.00 0.00 0.00 0.00 0.00 0.00 0.00 0.00 0.00 0.00 0.00 0.01 0.00 0.00 0.04 0.18 0.30 0.31 0.49
0.00 0.00 0.00 0.00 0.00 0.00 0.00 0.00 0.00 0.01 0.03 0.02 0.07 0.08 0.09 0.15 0.05 0.05 0.04 0.01 0.00 0.00 0.00 0.00 0.00 0.00 0.00 0.00 0.00 0.00 0.00 0.00 0.00 0.00 0.00 0.00 0.00 0.00 0.02 0.18 0.30 0.39 0.40 0.38
0.00 0.00 0.00 0.00 0.00 0.00 0.00 0.00 0.00 0.01 0.01 0.01 0.04 0.05 0.03 0.01 0.01 0.04 0.08 0.06 0.06 0.01 0.02 0.00 0.00 0.00 0.00 0.00 0.00 0.00 0.00 0.00 0.00 0.00 0.00 0.00 0.03 0.03 0.13 0.41 1.24 1.19 0.41 0.31
0.00 0.00 0.00 0.00 0.00 0.00 0.00 0.00 0.00 0.00 0.00 0.02 0.00 0.01 0.01 0.01 0.00 0.02 0.07 0.12 0.09 0.04 0.03 0.02 0.01 0.00 0.00 0.00 0.00 0.00 0.00 0.00 0.00 0.01 0.00 0.00 0.04 0.06 0.32 0.75 0.92 0.65 0.34 0.10
0.00 0.00 0.00 0.00 0.00 0.00 0.00 0.00 0.00 0.00 0.00 0.00 0.00 0.00 0.00 0.00 0.00 0.00 0.03 0.05 0.07 0.12 0.06 0.02 0.01 0.02 0.01 0.00 0.00 0.00 0.01 0.01 0.01 0.01 0.01 0.00 0.03 0.08 0.17 0.46 0.56 0.35 0.14 0.06
0.00 0.00 0.00 0.00 0.00 0.00 0.00 0.00 0.00 0.00 0.00 0.00 0.01 0.00 0.00 0.00 0.00 0.00 0.02 0.05 0.06 0.13 0.15 0.07 0.03 0.02 0.02 0.01 0.00 0.00 0.00 0.01 0.01 0.00 0.00 0.00 0.01 0.06 0.25 0.31 0.37 0.16 0.08 0.01
0.00 0.00 0.00 0.00 0.00 0.00 0.00 0.00 0.00 0.00 0.01 0.02 0.00 0.00 0.00 0.00 0.00 0.00 0.00 0.04 0.04 0.09 0.13 0.10 0.04 0.01 0.02 0.01 0.00 0.00 0.00 0.01 0.00 0.00 0.00 0.00 0.00 0.10 0.22 0.17 0.13 0.07 0.12 0.08
0.00 0.00 0.00 0.00 0.00 0.00 0.00 0.00 0.00 0.00 0.01 0.01 0.00 0.00 0.00 0.00 0.00 0.00 0.00 0.00 0.03 0.17 0.05 0.05 0.06 0.02 0.04 0.02 0.00 0.00 0.00 0.01 0.00 0.00 0.00 0.00 0.01 0.11 0.24 0.13 0.12 0.06 0.39 0.11
0.00 0.00 0.00 0.00 0.00 0.00 0.00 0.00 0.00 0.00 0.00 0.00 0.00 0.00 0.00 0.00 0.00 0.00 0.00 0.00 0.00 0.01 0.01 0.01 0.03 0.03 0.03 0.03 0.02 0.02 0.01 0.01 0.01 0.00 0.00 0.00 0.07 0.17 0.12 0.11 0.04 0.01 0.07 0.04
0.00 0.00 0.00 0.00 0.00 0.00 0.00 0.00 0.00 0.00 0.00 0.00 0.00 0.00 0.00 0.00 0.00 0.00 0.00 0.00 0.00 0.00 0.00 0.00 0.01 0.03 0.04 0.04 0.04 0.03 0.02 0.01 0.01 0.00 0.00 0.00 0.06 0.10 0.07 0.08 0.01 0.00 0.02 0.00
0.00 0.00 0.00 0.00 0.00 0.00 0.00 0.00 0.00 0.00 0.00 0.00 0.00 0.00 0.01 0.01 0.00 0.00 0.00 0.00 0.00 0.00 0.00 0.00 0.00 0.00 0.01 0.03 0.03 0.01 0.00 0.00 0.00 0.00 0.00 0.00 0.06 0.02 0.06 0.03 0.00 0.00 0.01 0.01
0.00 0.00 0.00 0.00 0.00 0.00 0.00 0.00 0.00 0.00 0.00 0.00 0.00 0.00 0.00 0.01 0.01 0.00 0.01 0.00 0.00 0.00 0.00 0.00 0.00 0.00 0.00 0.00 0.00 0.00 0.00 0.00 0.00 0.00 0.00 0.00 0.02 0.00 0.03 0.01 0.00 0.00 0.00 0.02
0.00 0.00 0.00 0.00 0.00 0.00 0.00 0.00 0.00 0.00 0.00 0.00 0.00 0.00 0.00 0.00 0.00 0.00 0.00 0.00 0.00 0.00 0.00 0.00 0.00 0.00 0.00 0.00 0.00 0.00 0.00 0.00 0.00 0.00 0.00 0.00 0.00 0.00 0.01 0.01 0.00 0.00 0.00 0.04
0.00 0.00 0.00 0.00 0.00 0.00 0.00 0.00 0.00 0.00 0.00 0.00 0.00 0.00 0.00 0.00 0.00 0.00 0.00 0.00 0.00 0.00 0.00 0.00 0.00 0.00 0.00 0.00 0.00 0.00 0.00 0.00 0.00 0.00 0.00 0.00 0.00 0.01 0.02 0.03 0.05 0.01 0.00 0.12
0.00 0.00 0.00 0.00 0.00 0.00 0.00 0.00 0.00 0.00 0.00 0.00 0.00 0.00 0.00 0.00 0.01 0.00 0.00 0.00 0.00 0.00 0.00 0.00 0.00 0.00 0.00 0.00 0.00 0.00 0.00 0.00 0.00 0.00 0.00 0.00 0.00 0.03 0.04 0.12 0.05 0.02 0.10 0.49
0.00 0.00 0.00 0.00 0.00 0.00 0.00 0.00 0.00 0.00 0.00 0.00 0.00 0.00 0.00 0.00 0.00 0.00 0.00 0.00 0.00 0.00 0.00 0.00 0.00 0.00 0.00 0.00 0.00 0.00 0.00 0.00 0.00 0.00 0.00 0.01 0.02 0.07 0.13 0.24 0.18 0.22 0.40 0.77
0.00 0.00 0.00 0.00 0.00 0.00 0.00 0.00 0.00 0.00 0.00 0.00 0.00 0.00 0.01 0.00 0.00 0.00 0.00 0.00 0.00 0.00 0.00 0.00 0.00 0.00 0.00 0.00 0.00 0.00 0.00 0.00 0.00 0.00 0.00 0.06 0.12 0.23 0.35 0.28 0.12 0.30 0.73 1.58
0.00 0.00 0.00 0.05 0.12 0.06 0.00 0.00 0.00 0.00 0.00 0.00 0.00 0.00 0.00 0.00 0.00 0.00 0.00 0.00 0.00 0.00 0.00 0.00 0.00 0.00 0.00 0.00 0.00 0.00 0.00 0.00 0.00 0.00 0.02 0.17 0.41 0.36 0.24 0.24 0.45 0.90 1.84 1.99
0.00 0.00 0.00 0.00 0.05 0.11 0.02 0.02 0.00 0.00 0.00 0.00 0.00 0.00 0.00 0.00 0.00 0.00 0.00 0.00 0.00 0.00 0.00 0.00 0.00 0.00 0.00 0.00 0.00 0.00 0.00 0.00 0.00 0.05 0.34 0.56 0.49 0.51 1.02 0.98 0.91 1.28 1.00 0.61
0.00 0.00 0.00 0.00 0.00 0.05 0.02 0.03 0.02 0.01 0.01 0.01 0.01 0.02 0.06 0.09 0.06 0.02 0.04 0.04 0.00 0.00 0.00 0.00 0.00 0.00 0.00 0.00 0.00 0.00 0.03 0.05 0.21 0.77 0.89 0.93 1.87 2.85 2.31 1.34 1.07 0.83 0.71 0.51
0.10 0.01 0.04 0.01 0.00 0.00 0.03 0.02 0.02 0.06 0.09 0.14 0.17 0.20 0.18 0.19 0.46 0.33 0.12 0.05 0.01 0.01 0.00 0.00 0.00 0.00 0.00 0.00 0.02 0.25 0.28 0.49 0.91 0.92 1.43 2.73 2.88 2.05 1.23 0.88 0.60 0.60 0.48 0.17
0.17 0.22 0.10 0.03 0.04 0.04 0.06 0.04 0.02 0.02 0.09 0.17 0.25 0.30 0.73 0.50 0.41 0.20 0.02 0.03 0.01 0.00 0.00 0.00 0.00 0.00 0.00 0.09 0.23 0.44 0.72 0.87 0.87 1.47 2.35 2.36 1.49 0.96 0.60 0.29 0.26 0.35 0.26 0.11
0.11 0.12 0.08 0.04 0.10 0.19 0.09 0.10 0.06 0.36 0.27 0.07 0.20 0.19 0.13 0.14 0.21 0.17 0.05 0.02 0.00 0.00 0.00 0.00 0.00 0.00 0.13 0.32 0.41 0.78 0.93 0.98 1.39 1.47 1.43 1.34 0.82 0.33 0.17 0.21 0.18 0.14 0.11 0.08
0.57 0.12 0.01 0.14 0.22 0.23 0.01 0.01 0.04 0.18 0.42 0.03 0.04 0.03 0.07 0.04 0.03 0.03 0.03 0.01 0.00 0.00 0.00 0.00 0.00 0.02 0.24 0.40 0.74 0.75 0.81 1.08 1.55 1.96 1.97 1.38 0.48 0.27 0.16 0.16 0.12 0.08 0.05 0.02
0.24 0.19 0.03 0.00 0.08 0.22 0.15 0.03 0.05 0.12 0.19 0.02 0.00 0.01 0.00 0.00 0.00 0.00 0.00 0.01 0.00 0.01 0.04 0.04 0.07 0.31 0.66 0.82 1.03 1.29 1.19 1.54 2.45 1.88 0.73 0.32 0.15 0.15 0.15 0.10 0.04 0.01 0.00 0.00
0.04 0.05 0.02 0.01 0.10 0.07 0.08 0.22 0.08 0.06 0.08 0.00 0.00 0.00 0.00 0.00 0.00 0.00 0.01 0.02 0.01 0.01 0.06 0.19 0.31 0.53 0.62 0.70 0.73 0.60 0.51 0.59 0.69 0.37 0.18 0.15 0.11 0.09 0.07 0.02 0.00 0.00 0.01 0.00